Location: Kellogg
(38.0159°N, 90.0546°W)
Time: 15:19:54
(UTC+00:00)

Transit 2A - Pass Details

Date: 22 September 2024
Orbit: 590 x 960 km, 66.7° (Epoch: 07 October)

Event Time Altitude Azimuth Distance (km) Brightness Sun altitude
Rises 22:08:21 0° 197° (SSW) 3,370 9.8 20.2°
Reaches altitude 10° 22:10:44 10° 194° (SSW) 2,490 9.2 19.7°
Maximum altitude 22:16:30 65° 114° (ESE) 997 6.7 18.6°
Drops below altitude 10° 22:22:43 10° 34° (NE) 2,677 8.4 17.4°
Sets 22:25:21 0° 32° (NNE) 3,641 9.1 16.9°
